THORAD AGENA D DEB, 42502

Orbit data source: Space-Track

THORAD AGENA D DEB, 42502 is space debris in SSO originally from a launch on Wed, 08 Apr 1970 UTC launched from the Air Force Western Test Range (AFWTR). Debris objects in space refer to the collection of defunct objects orbiting the Earth. Examples of debris include non-operational satellites, rocket bodies, and fragments generated from explosions, collisions, or faulty payload assembly.

Loading next visibility...
Identifier
42502, 1970-025RG
Orbit
SSO
Country
Flag of USUS
Related business
Manufacturer
Unknown
Mission
Spacecraft
Bus & Motor
Unknown
Mass
Unknown
Launch date (UTC)
1970-04-08 (56 years ago)
Launch vehicle
Unknown
Launch site
Air Force Western Test Range (AFWTR)
Object type
Payload
Rocket body
Debris
Shape & HBR
Unknown shape, 0.1 m
Radar Cross Section
Small (<0.1 m²)

Expand to show TLE details & history
Last TLE update: 1 day ago

TLE from 1 day ago
0 THORAD AGENA D DEB
1 42502U 70025RG  25340.53427686  .00000079  00000-0  17908-3 0  9996
2 42502  99.7275 251.9740 0013764 335.1582 207.1300 13.54842170595300
Epoch: 2025-12-06T12:49Z
TLE epoch observation values (Epoch: 2025-12-06T12:49:21.520Z)
Latitude
-2.30998°
Longitude
163.67952°
Altitude
1,066.726 km
Speed
7.314 km/s
True Right ascension
04h 46m 19s
True Declination
-2° 17' 48"
Sunlit
Object was in full shadow at epoch
Visualization orbit readout
Latitude
Unknown
Longitude
Unknown
Altitude
Unknown
Speed
Unknown
Apparent Right ascension
Unknown
Apparent Declination
Unknown
Sunlit
N/A
Visualization observer readout
Local Sidereal Time
12:49:05
Azimuth
Unknown
Elevation
Unknown
Doppler factor
Unknown
Orbital elements
Apogee altitude
1,062.019 km
Perigee altitude
1,041.566 km
Semi-major axis
7,429.93 km
Eccentricity
0.00138
Inclination
99.7275°
RAAN
251.974°
Arg. of periapsis
335.1582°
True anomaly
207.05819°
Mean anomaly
207.13°
Eccentric anomaly
207.09408°
Mean motion
3.38896 °/min
Orbital period
106.23 mins
BSTAR
0.00017908

Documentation

Showing up to 5 results
|